This is the latest recevied weather packets stored in our database for station/object K5WRW-WX. If no packets are shown the sender has not sent any weather packets the latest 10 day(s).
| Time | Temp. | Humidity | Pressure | Rain* | Wind** | Luminosity | Snow |
|---|---|---|---|---|---|---|---|
| 1777969516 | 22.22° C | 79% | 1001.7 hPa | 0 mm | - | - | - |
| 1777968316 | 22.22° C | 78% | 1001.9 hPa | 0 mm | - | - | - |
| 1777967715 | 22.78° C | 77% | 1002 hPa | 0 mm | - | - | - |
| 1777965315 | 22.78° C | 76% | 1002.6 hPa | 0 mm | - | - | - |
| 1777960517 | 22.78° C | 74% | 1003.1 hPa | 0 mm | - | - | - |
| 1777956917 | 22.78° C | 74% | 1003.6 hPa | 0 mm | - | - | - |
| 1777953317 | 23.33° C | 72% | 1003.9 hPa | 0 mm | - | - | - |
| 1777952117 | 23.33° C | 71% | 1004.1 hPa | 0 mm | - | - | - |
| 1777950317 | 23.33° C | 71% | 1004.1 hPa | 0 mm | - | - | - |
| 1777949716 | 23.33° C | 71% | 1004.1 hPa | 0 mm | - | - | - |
| 1777949116 | 23.33° C | 70% | 1004.1 hPa | 0 mm | - | - | - |
| 1777935316 | 26.67° C | 58% | 1004.6 hPa | 0 mm | - | - | - |
| 1777930516 | 27.22° C | 54% | 1005.3 hPa | 0 mm | - | - | - |
| 1777929916 | 26.67° C | 55% | 1005.6 hPa | 0 mm | - | - | - |
| 1777929316 | 27.22° C | 54% | 1005.8 hPa | 0 mm | - | - | - |
| 1777928116 | 26.67° C | 54% | 1006 hPa | 0 mm | - | - | - |
| 1777922716 | 25.56° C | 52% | 1007.6 hPa | 0 mm | - | - | - |
| 1777915517 | 24.44° C | 54% | 1009.4 hPa | 0 mm | - | - | - |
| 1777910117 | 22.22° C | 57% | 1010.5 hPa | 0 mm | - | - | - |
| 1777908917 | 22.22° C | 56% | 1010.5 hPa | 0 mm | - | - | - |
| 1777904717 | 20° C | 63% | 1011.1 hPa | 0 mm | - | - | - |
| 1777901717 | 18.89° C | 67% | 1011 hPa | 0 mm | - | - | - |
| 1777901117 | 18.33° C | 67% | 1011.1 hPa | 0 mm | - | - | - |
| 1777898717 | 17.22° C | 73% | 1011.1 hPa | 0 mm | - | - | - |
| 1777893316 | 17.22° C | 69% | 1010.8 hPa | 0 mm | - | - | - |
* Rain latest hour (hover to see other rain measurements)
** Current wind speed in m/s (hover to see current wind gust speed)